Location: �clusier
(49.9361°N, 2.7869°E)
Time: 12:02:17
(UTC+00:00)

Cosmos 1452 Rocket - Pass Details

Date: 30 October 2021
Orbit: 767 x 775 km, 74.1° (Epoch: 26 November)

Event Time Altitude Azimuth Distance (km) Brightness Sun altitude
Exits shadow 03:42:34 - 344° (NNW) 2,987 6.5 -28.1°
Reaches altitude 10° 03:44:35 10° 355° (N) 2,335 6.1 -27.8°
Maximum altitude 03:48:54 25° 50° (NE) 1,545 5.6 -27.1°
Drops below altitude 10° 03:53:12 10° 104° (ESE) 2,323 6.8 -26.5°
Sets 03:55:59 0° 118° (ESE) 3,245 7.5 -26.0°
